Regional Weather Roundup
Issued by NWS Columbia, SC

Home | Current Version | Previous Version | Text Only | Print | Product List | Glossary On
Versions: 1 2 3 4 5 6 7 8 9 10 11 12 13 14 15 16 17 18 19 20 21 22 23 24 25 26 27 28
000
ASUS42 KCAE 030310
RWRCAE
REGIONAL WEATHER ROUNDUP
NATIONAL WEATHER SERVICE COLUMBIA SC
1000 PM EST FRI DEC 02 2016

NOTE: "FAIR" INDICATES FEW OR NO CLOUDS BELOW 12,000 FEET WITH NO
SIGNIFICANT WEATHER AND/OR OBSTRUCTIONS TO VISIBILITY.

NOT ALL STATIONS ARE QUALITY CONTROLLED BY THE NATIONAL
WEATHER SERVICE. USE DATA WITH CAUTION...ESPECIALLY
DEWPOINT OBSERVATIONS.

SCZ001>056-GAZ040-063>065-077-030400-
...UPSTATE SOUTH CAROLINA...

CITY           SKY/WX    TMP DP  RH WIND       PRES   REMARKS
ANDERSON       PTCLDY    51  29  42 W7        30.20S
LIBERTY        MOCLDY    39  34  83 CALM      30.18F
SPARTANBURG    PTCLDY    46  27  46 N6        30.20S
CLEMSON        PTCLDY    54  27  35 W7        30.21F
GREENVILLE     MOCLDY    47  34  60 CALM      30.20S
GREENWOOD      PTCLDY    39  33  79 CALM      30.22S
GREER          PTCLDY    41  33  73 NE3       30.18F
ROCK HILL      PTCLDY    44  26  49 W3        30.20S
CHESTER        PTCLDY    43  25  49 CALM      30.21S
LAURENS          N/A     41  34  75 CALM      30.20F


...CENTRAL SOUTH CAROLINA...

CITY           SKY/WX    TMP DP  RH WIND       PRES   REMARKS
COLUMBIA APT   PTCLDY    43  35  73 SW3       30.20S
COLUMBIA OWENS PTCLDY    45  37  73 CALM      30.22R
MCENTIRE ANGB  CLEAR     40  35  85 CALM      30.22R
ORANGEBURG     CLEAR     41  37  86 CALM      30.23R
SUMTER SHAW    CLEAR     46  35  66 W6        30.19R
NEWBERRY       CLOUDY    41  34  75 CALM      30.23F
AIKEN          FAIR      39  36  87 CALM      30.24F
LANCASTER      CLOUDY    43  27  52 W3        30.21S
WINNSBORO      CLEAR     45  34  65 W3        30.20S


...EASTERN AND COASTAL SOUTH CAROLINA...

CITY           SKY/WX    TMP DP  RH WIND       PRES   REMARKS
MYRTLE BEACH   CLEAR     43  36  75 W6        30.22R
N MYRTLE BCH   CLEAR     43  41  93 CALM      30.20R
CONWAY         FAIR      36  36 100 CALM      30.21R
MARION         FAIR      41  36  81 SW3       30.21R
HARTSVILLE     FAIR      41  36  81 CALM      30.20R
FLORENCE       CLEAR     42  37  82 W3        30.21R
DARLINGTON     CLOUDY    41  37  86 W3        30.20R
CHARLESTON APT CLEAR     44  38  79 CALM      30.22R
WALTERBORO     CLEAR     41 N/A N/A CALM      30.23F
BEAUFORT       CLEAR     42  37  82 SW5       30.23R
HILTON HEAD    CLEAR     43  39  87 CALM      30.25R


...EASTERN GEORGIA...

CITY           SKY/WX    TMP DP  RH WIND       PRES   REMARKS
AUGUSTA BUSH F CLEAR     39  35  86 CALM      30.22S
AUGUSTA DANIEL CLEAR     54  28  36 NW9       30.21F
THOMSON        CLEAR     44  39  81 CALM      30.26F
WASHINGTON     FAIR      52  36  54 NW5       30.22S
CLAXTON        FAIR     N/A N/A N/A CALM      30.24F
SYLVANIA       PTCLDY   N/A N/A N/A CALM      30.23F
STATESBORO     CLOUDY    40  40 100 CALM      30.23F
SAVANNAH       CLOUDY    44  38  79 CALM      30.24R


...SOUTHERN NORTH CAROLINA...

CITY           SKY/WX    TMP DP  RH WIND       PRES   REMARKS
CHARLOTTE      PTCLDY    47  21  35 CALM      30.19S
MONROE         CLEAR     40  28  62 CALM      30.18S
WADESBORO      CLEAR     36  32  86 CALM      30.20R
RUTHERFORDTON  PTCLDY    47  26  43 W6        30.19S
ASHEVILLE      PTCLDY    43  24  47 N10       30.19F

$$




USA.gov is the U.S. government's official web portal to all federal, state and local government web resources and services.